Погода в Василевичи

Погода в Василевичи : погода сейчас, прогноз погоды и архив. Всё, что Вы хотите узнать о погоде в Василевичи!

Хотите узнать прогноз погоды в Василевичи? Тогда Вам сюда: Погода в Василевичи

Поиск расширенной информации на нашем сайте:

Другие новости

Новости СМИ2

Главная страница сайта

Новости сайта

03.07.2017

Напоминаем, что на нашем специализированном сайте Метеоцентр.Азия вы можете получить высокодетализированные автоматические прогнозы погоды по пунктам России, СНГ и мира в авиационном формате (включающие направление и скорость ветра, видимость, явления погоды, количество и форму облачности, нижнюю и верхнюю границу облачности).


Погода в Василевичи - сегодня

Время (UTC), дата Ветер
(°,м/с) 
Видим.   Явления Облачность Т
(°С)
Тd
(°С)
f(%) Тe
(°С)
Pmin
(гПа)
dP
(гПа)
Po
(мм)
O2
(г/м3)
Тmin Tmax R s Состояние
почвы
21 19.07.17 тихо ()   4000 м  дымка  ясно 
+12.3 +11 92 +15  1017.8  -0.2  751  287           
00 20.07.17 тихо ()   4000 м  дымка  4/4 600 м 
[Sc]
+11.2 +10.3 94 +13  1017.5  -0.4  750  288           
03 20.07.17 тихо ()   4000 м  дымка  3/3 600 м 
[Sc]
+10.1 +9.2 94 +10  1016.6  -0.9  750  290           
06 20.07.17 170 (Ю) 10 км    1/0 средняя 
[Ac trans]
+20.9 +13.3 62 +27  1015.4  -0.5  749  278  +9.5         
09 20.07.17 200 (Ю) 20000 м    10/0 средняя, верхняя 
[Ac trans|Ci fib]
+23.6 +13.6 53 +30  1014.3  -0.9  749  275           
12 20.07.17 350 (С) 10 км  гроза, ливневой дождь  10/10 600 м кучево-дожд. 
[Cb cap]
+19.8 +16.5 81 +32  1014.3  -0.3  748  278      0.5     
15 20.07.17 тихо ()   10 км  {гроза, ливн. осадки}  8/5 600 м средняя, верхняя 
[Sc|Ac trans|Ci fib]
+21.2 +16.5 75 +33  1012.8  -1.3  747  276      0.9     
18 20.07.17 тихо ()   4000 м  дымка{гроза, ливн. осадки}  6/0 верхняя 
[Ci fib]
+18.3 +16.4 89 +30  1013.1  0.1  747  279    +26.2  0.9     
21 20.07.17 тихо ()   4000 м  дымка  ясно 
+15.2 +14.9 98 +24  1013.5  0.2  748  282           
00 21.07.17 тихо ()   1000 м  дымка  ясно 
+12.5 +12.3 99 +17  1013.5  -0.2  747  286           
03 21.07.17 тихо ()   1000 м  дымка  4/0 средняя 
[Ac trans]
+12.2 +12 99 +16  1013.1  -0.4  747  286           
06 21.07.17 тихо ()   10 км    9/0 средняя, верхняя 
[Ac trans|Ci fib]
+20.4 +16.7 79 +32  1013.3  0.7  748  277  +11.4         
09 21.07.17 210 (ЮЗ) 20000 м    8/4 1000 м средняя, верхняя 
[Cu hum|Ac trans|Ci fib]
+26.5 +16.8 55 +39  1012.7  -0.2  747  271           
12 21.07.17 290 (З) 20000 м    8/5 600 м средняя, верхняя 
[Cu med, cong|Ac trans|Ci fib]
+27.2 +16.9 53 +39  1012.4  -0.2  747  270           
15 21.07.17 230 (ЮЗ) 20000 м    8/4 600 м верхняя 
[Cu med, cong|Ci fib]
+29 +16.4 47 +40  1011.6  -0.7  747  269           
18 21.07.17 060 (СВ) 10 км    3/3 600 м 
[Sc diur, vesp]
+22.7 +18.1 75 +37  1012.4  0.4  747  274    +29.4       
21 21.07.17 тихо ()   4000 м  дымка{ливн. осадки}  10/10 600 м 
[Sc]
+19.5 +18.1 92 +34  1012.4  -0.2  747  277      0.2     
00 22.07.17 120 (ЮВ) 1{12}  4000 м  гроза, ливневой дождь  10/10 600 м кучево-дожд. 
[Cb cap]
+17 +16.9 99 +30  1013.2  0.6  747  280      14     
03 22.07.17 090 (В) 1000 м  в посл. час гроза{ливн. осадки}  8/5 600 м кучево-дожд., верхняя 
[Cb calv|Ci fib]
+16.7 +16.5 99 +30  1010.9  -2.3  746  279      19     
06 22.07.17 320 (СЗ) 4000 м  дымка{гроза, ливн. осадки}  10/10 600 м 
[Sc]
+18.8 +17.4 92 +33  1012.8  747  278  +16.6    19     
09 22.07.17 340 (С) 4000 м  дымка  10/10 600 м 
[Sc]
+17.9 +17 94 +31  1013.8  0.9  748  279           
12 22.07.17 350 (С) 10 км    10/10 600 м кучево-дожд. 
[Cb calv]
+20.3 +16.2 77 +31  1014.4  0.8  748  277           
15 22.07.17 340 (С) 20000 м    4/3 600 м средняя 
[Cu med, cong|Ac trans]
+21.8 +13.8 60 +29  1014.8  0.5  749  277           
18 22.07.17 тихо ()   10 км    3/0 средняя 
[Ac trans]
+18.3 +14.4 78 +26  1016  0.9  749  280    +22.9       
21 22.07.17 тихо ()   4000 м  дымка  ясно 
+14.3 +13.9 97 +21  1017.1  0.8  750  284           
Время (UTC), дата Ветер
(°,м/с) 
Видим.   Явления Облачность Т
(°С)
Тd
(°С)
f(%) Тe
(°С)
Pmin
(гПа)
dP
(гПа)
Po
(мм)
O2
(г/м3)
Тmin Tmax R s Состояние
почвы

Для получения пояснительной информации подведите курсор к названию столбца.

ПОГОДА в Василевичи - архив

Всё, что Вы хотите узнать о погоде в Василевичи - удобно и подробно!

Выберите нужную дату (начиная с 1 января 2015* года) и нажмите кнопку "Найти".
Будут отображены архивные сводки погоды по пункту Василевичи, начиная с указанной даты.


Отображать данные в формате CSV (для использования в таблицах Excel)


Внимание! Наш архив погоды предназначен исключительно для личного некоммерческого использования в познавательных целях. Если Вам необходимы официальные справки о состоянии погоды (для производственных, юридических, коммерческих и т.п. целей), обращайтесь в органы Росгидромета.

*Примечание: данная дата относится к архиву по метеостанциям СССР (Россия, СНГ, Балтия).
Архив по метеостанциям Зарубежной Европы и Азии (кроме Китая) хранится 10 дней, по другим регионам земного шара (Китай, Африка, Америка, Австралия, Океания) - 1 день.

Василевичи - район местоположения метеостанции


Название, широта, долгота, высота метеостанции:
Василевичи 52.2°ш. 29.8°д. 142 м над ур. моря [Беларусь]

Дополнительная информация

В oтличие oт бoльшинства пoгoдных сайтoв мы публикуем пoдрoбную метеoинфoрмацию в детальнoм прoфессиoнальнoм фoрмате.

Характеристики температуры и влажнoсти вoздуха измеряются на высoте 2 м в тени вдали oт зданий и деревьев.
Скoрoсть ветра измеряется на высoте 10 м (на урoвне рoста челoвека скoрoсть ветра ниже в 1.5-2 раза). Если метеoстанция нахoдится в гoрoде или в лесу, тo скoрoсть ветра занижена на 2-4 м/с пo сравнению с oткрытым местoм. Скoрoсть ветра над акватoриями крупных рек и oзёр, а также на вершинах хoлмoв на 2-5 м/с выше, чем в oбычных услoвиях.
Атмoсфернoе давление в разных тoчках местнoсти мoжет значительнo oтличаться oт давления на метеoстанции, в зависимoсти oт услoвий рельефа (при пoдъёме на 10 м давление пoнижается примернo на 1 мм рт.ст.).